Weather History for West Plains, MO

Change the Weather History Date:

Sunday, July 28, 2013

  Actual Average Record
Temperature  
Mean Temperature 65 °F 78 °F  
Max Temperature 73 °F 91 °F 103 °F (1986)
Min Temperature 57 °F 66 °F 53 °F (2004)
Degree Days  
Heating Degree Days 0 0  
Month to date heating degree days 0 0  
Since 1 June heating degree days 9 5  
Since 1 July heating degree days 0 0  
Cooling Degree Days 0 13  
Month to date cooling degree days 244 360  
Year to date cooling degree days 504 748  
Since 1 June cooling degree days 392 626  
Growing Degree Days 15 (Base 50)    
Moisture  
Dew Point 57 °F    
Average Humidity 73    
Maximum Humidity 93    
Minimum Humidity 53    
Precipitation  
Precipitation 0.00 in 0.09 in 1.66 in (2009)
Month to date precipitation 4.05 3.26  
Year to date precipitation 29.54 26.55  
Sea Level Pressure  
Sea Level Pressure 30.05 in    
Wind  
Wind Speed 3 mph (South)    
Max Wind Speed 8 mph    
Max Gust Speed 12 mph    
Visibility 10 miles    
Events      
T = Trace of Precipitation, MM = Missing Value Source: NWS Daily Summary

Daily Weather History Graph

Daily Weather History Graph

Search for Another Location

Airport:

Trip Planner

Search our weather history database for the weather conditions in past years. The results will help you decide how hot, cold, wet, or windy it might be!

Date:

Astronomy

Jul. 28, 2013 Rise Set
Actual Time 6:10 AM CDT 8:17 PM CDT
Civil Twilight 5:41 AM CDT 8:46 PM CDT
Nautical Twilight 5:05 AM CDT 9:21 PM CDT
Astronomical Twilight 4:27 AM CDT 9:59 PM CDT
Moon 11:51 PM CDT (7/28) 12:41 PM CDT (7/28)
Length of Visible Light 15h 05m
Length of Day
14h 07m
Waning Gibbous, 60% of the Moon is Illuminated
Jul 28
Waning Gibbous
Jul 29
Last Quarter
Aug 6
New
Aug 14
First Quarter
Aug 20
Full

Hourly Weather History & Observations

Time (CDT) Temp. Dew Point Humidity Pressure Visibility Wind Dir Wind Speed Gust Speed Precip Events Conditions
12:53 AM 59.0 °F 57.0 °F 93% 30.01 in 10.0 mi Calm Calm - N/A   Clear
1:53 AM 57.9 °F 55.9 °F 93% 30.00 in 10.0 mi Calm Calm - N/A   Clear
2:53 AM 57.9 °F 55.0 °F 90% 30.01 in 10.0 mi Calm Calm - N/A   Clear
3:53 AM 59.0 °F 57.0 °F 93% 30.01 in 10.0 mi Calm Calm - N/A   Overcast
4:53 AM 59.0 °F 55.9 °F 90% 30.01 in 10.0 mi Calm Calm - N/A   Partly Cloudy
5:53 AM 61.0 °F 57.0 °F 87% 30.02 in 10.0 mi Calm Calm - N/A   Overcast
6:53 AM 62.1 °F 55.9 °F 80% 30.04 in 10.0 mi Calm Calm - N/A   Overcast
7:53 AM 63.0 °F 55.0 °F 75% 30.04 in 10.0 mi SE 3.5 mph - N/A   Overcast
8:53 AM 64.0 °F 55.0 °F 73% 30.06 in 10.0 mi South 4.6 mph - N/A   Overcast
9:53 AM 64.0 °F 55.0 °F 73% 30.06 in 10.0 mi SSE 4.6 mph - N/A   Overcast
10:53 AM 66.9 °F 55.9 °F 68% 30.06 in 10.0 mi SSE 5.8 mph - N/A   Scattered Clouds
11:53 AM 68.0 °F 55.9 °F 65% 30.06 in 10.0 mi South 5.8 mph - N/A   Scattered Clouds
12:53 PM 71.1 °F 53.1 °F 53% 30.06 in 10.0 mi South 5.8 mph - N/A   Partly Cloudy
1:53 PM 71.1 °F 55.9 °F 59% 30.06 in 10.0 mi SE 5.8 mph - N/A   Clear
2:53 PM 73.0 °F 57.0 °F 57% 30.05 in 10.0 mi South 5.8 mph - N/A   Clear
3:53 PM 72.0 °F 57.0 °F 59% 30.05 in 10.0 mi SSW 5.8 mph - N/A   Clear
4:53 PM 72.0 °F 57.0 °F 59% 30.04 in 10.0 mi SSW 5.8 mph - N/A   Clear
5:53 PM 71.1 °F 59.0 °F 66% 30.06 in 10.0 mi WSW 3.5 mph - N/A   Clear
6:53 PM 71.1 °F 60.1 °F 68% 30.05 in 10.0 mi SSW 6.9 mph - N/A   Clear
7:53 PM 69.1 °F 62.1 °F 78% 30.06 in 10.0 mi Calm Calm - N/A   Clear
8:53 PM 66.9 °F 62.1 °F 84% 30.04 in 10.0 mi SSE 3.5 mph - N/A   Clear
9:53 PM 64.9 °F 62.1 °F 90% 30.08 in 10.0 mi Calm Calm - N/A   Clear
10:53 PM 64.9 °F 62.1 °F 90% 30.08 in 10.0 mi Calm Calm - N/A   Clear
11:53 PM 66.0 °F 61.0 °F 84% 30.08 in 10.0 mi Calm Calm - N/A   Mostly Cloudy